^^
Datos históricos de la estación: Murcia-Puente Tocinos
Diario Informe para Junio 20, 2021 Unidades:  Ambas    Ingés   Métrico
Diario Semanal Mensual Anual
  Máxima: Mínima: Promedio:
Temperatura: 72.3 °F /  22.4 °C 70.3 °F /  21.3 °C 71.1 °F /  21.7 °C
Punto de rocio: 66.6 °F /  19.2 °C 65.7 °F /  18.7 °C 66.2 °F /  19 °C
Humedad: 88% 81% 85%
Velocidad viento: 7.4mph /  11.9km/h - 3.4mph /  5.5km/h
Racha viento: 13mph /  20.9km/h - -
Viento- - SSO
Presión: 29.9 in /  1013.4 hPa 29.8 in /  1010.7 hPa -
Precipitación: 0 in /  0.0 mm    
 
 
Tabla de datos para Junio 20, 2021
Hora Temperatura Punto de rocio Presión Viento Velocidad viento Racha viento Humedad Intensidad lluvia(por hora) Nubes
00:04 72.3 °F /  22.4 °C 66.2 °F /  19 °C 29.9in /  1013.4hPa NE 3.6mph /  5.8km/h 7mph /  11.3km/h 81% 0in /  0.0mm
00:09 72.3 °F /  22.4 °C 66.2 °F /  19 °C 29.9in /  1013.4hPa NE 3.6mph /  5.8km/h 7mph /  11.3km/h 81% 0in /  0.0mm
00:14 72.3 °F /  22.4 °C 66.2 °F /  19 °C 29.9in /  1013.4hPa NE 3.6mph /  5.8km/h 5.9mph /  9.5km/h 81% 0in /  0.0mm
00:19 72.3 °F /  22.4 °C 66.2 °F /  19 °C 29.9in /  1013.4hPa NE 3.6mph /  5.8km/h 6mph /  9.7km/h 81% 0in /  0.0mm
00:24 72.3 °F /  22.4 °C 66.2 °F /  19 °C 29.9in /  1013.4hPa NNE 3.6mph /  5.8km/h 6mph /  9.7km/h 81% 0in /  0.0mm
00:29 72.3 °F /  22.4 °C 66.2 °F /  19 °C 29.9in /  1013.3hPa ENE 3.2mph /  5.1km/h 5.8mph /  9.3km/h 81% 0in /  0.0mm
00:34 72.3 °F /  22.4 °C 66.2 °F /  19 °C 29.9in /  1013.3hPa NE 2.9mph /  4.6km/h 6mph /  9.7km/h 81% 0in /  0.0mm
00:39 72.3 °F /  22.4 °C 66.2 °F /  19 °C 29.9in /  1013.3hPa NNO 2.9mph /  4.6km/h 6.4mph /  10.3km/h 81% 0in /  0.0mm
00:44 72.3 °F /  22.4 °C 66.2 °F /  19 °C 29.9in /  1013.0hPa NNO 2.9mph /  4.7km/h 6.9mph /  11.1km/h 81% 0in /  0.0mm
00:49 72.3 °F /  22.4 °C 66.2 °F /  19 °C 29.9in /  1013.0hPa ONO 3.3mph /  5.3km/h 7mph /  11.3km/h 81.2% 0in /  0.0mm
00:54 72.3 °F /  22.4 °C 66.4 °F /  19.1 °C 29.9in /  1013.0hPa Este 3.6mph /  5.8km/h 6.9mph /  11.1km/h 81.6% 0in /  0.0mm
00:59 72.1 °F /  22.3 °C 66.2 °F /  19 °C 29.9in /  1013.0hPa NE 3.3mph /  5.3km/h 7mph /  11.3km/h 81.4% 0in /  0.0mm
01:04 72.1 °F /  22.3 °C 66.4 °F /  19.1 °C 29.9in /  1013.0hPa SE 3.1mph /  5km/h 6mph /  9.7km/h 82% 0in /  0.0mm
01:09 72.3 °F /  22.4 °C 66.2 °F /  19 °C 29.9in /  1013.2hPa ESE 3mph /  4.8km/h 5mph /  8km/h 81.2% 0in /  0.0mm
01:14 72.1 °F /  22.3 °C 66 °F /  18.9 °C 29.9in /  1013.2hPa Este 2.9mph /  4.6km/h 4.6mph /  7.4km/h 81% 0in /  0.0mm
01:19 72.1 °F /  22.3 °C 66 °F /  18.9 °C 29.9in /  1013.2hPa NE 2.9mph /  4.7km/h 5.2mph /  8.4km/h 81.3% 0in /  0.0mm
01:24 72.1 °F /  22.3 °C 66.2 °F /  19 °C 29.9in /  1013.2hPa NE 2.9mph /  4.7km/h 7.4mph /  11.9km/h 81.9% 0in /  0.0mm
01:29 72 °F /  22.2 °C 66.2 °F /  19 °C 29.9in /  1013.0hPa NE 3.5mph /  5.6km/h 7mph /  11.3km/h 82% 0in /  0.0mm
01:34 72 °F /  22.2 °C 66.2 °F /  19 °C 29.9in /  1013.0hPa NE 4mph /  6.5km/h 7mph /  11.3km/h 82% 0in /  0.0mm
01:39 72 °F /  22.2 °C 66 °F /  18.9 °C 29.9in /  1013.0hPa NE 4mph /  6.5km/h 7mph /  11.3km/h 82% 0in /  0.0mm
01:44 71.8 °F /  22.1 °C 66 °F /  18.9 °C 29.9in /  1012.6hPa NE 4mph /  6.5km/h 6mph /  9.7km/h 82% 0in /  0.0mm
01:49 71.8 °F /  22.1 °C 66 °F /  18.9 °C 29.9in /  1012.6hPa NE 3.8mph /  6.1km/h 6mph /  9.7km/h 82% 0in /  0.0mm
01:51 71.8 °F /  22.1 °C 66 °F /  18.9 °C 29.9in /  1012.6hPa North 3.6mph /  5.8km/h 5.9mph /  9.5km/h 82% 0in /  0.0mm
01:59 71.6 °F /  22 °C 65.8 °F /  18.8 °C 29.9in /  1013.0hPa NNE 3.6mph /  5.8km/h 6.2mph /  10km/h 82% 0in /  0.0mm
02:04 71.4 °F /  21.9 °C 65.7 °F /  18.7 °C 29.9in /  1013.0hPa NNE 3.6mph /  5.8km/h 6mph /  9.7km/h 82% 0in /  0.0mm
02:09 71.4 °F /  21.9 °C 65.8 °F /  18.8 °C 29.9in /  1013.1hPa NE 3.6mph /  5.8km/h 7.4mph /  11.9km/h 82.6% 0in /  0.0mm
02:14 71.4 °F /  21.9 °C 66 °F /  18.9 °C 29.9in /  1013.1hPa NNE 3.6mph /  5.8km/h 7mph /  11.3km/h 83% 0in /  0.0mm
02:19 71.4 °F /  21.9 °C 66 °F /  18.9 °C 29.9in /  1013.1hPa NNE 3.6mph /  5.8km/h 6mph /  9.7km/h 83% 0in /  0.0mm
02:24 71.4 °F /  21.9 °C 66 °F /  18.9 °C 29.9in /  1013.1hPa NNE 3.6mph /  5.8km/h 5mph /  8km/h 83% 0in /  0.0mm
02:29 71.2 °F /  21.8 °C 65.8 °F /  18.8 °C 29.9in /  1013.1hPa NNE 3.2mph /  5.1km/h 5mph /  8km/h 83% 0in /  0.0mm
02:34 71.2 °F /  21.8 °C 65.8 °F /  18.8 °C 29.9in /  1013.1hPa North 2.9mph /  4.7km/h 5mph /  8km/h 83% 0in /  0.0mm
02:39 71.2 °F /  21.8 °C 65.8 °F /  18.8 °C 29.9in /  1013.3hPa NO 2.9mph /  4.6km/h 5.4mph /  8.7km/h 83% 0in /  0.0mm
02:44 71.2 °F /  21.8 °C 65.8 °F /  18.8 °C 29.9in /  1013.3hPa NO 2.9mph /  4.7km/h 6mph /  9.7km/h 83.1% 0in /  0.0mm
02:49 71.1 °F /  21.7 °C 66 °F /  18.9 °C 29.9in /  1013.3hPa ONO 3.3mph /  5.3km/h 6mph /  9.7km/h 84% 0in /  0.0mm
02:54 71.1 °F /  21.7 °C 66 °F /  18.9 °C 29.9in /  1013.3hPa NO 3.6mph /  5.8km/h 6mph /  9.7km/h 84% 0in /  0.0mm
02:59 71.1 °F /  21.7 °C 66 °F /  18.9 °C 29.9in /  1013.3hPa NO 3.1mph /  5km/h 5mph /  8km/h 84% 0in /  0.0mm
03:04 71.1 °F /  21.7 °C 66.2 °F /  19 °C 29.9in /  1013.3hPa NO 2.9mph /  4.6km/h 5mph /  8km/h 84.5% 0in /  0.0mm
03:09 71.1 °F /  21.7 °C 66.4 °F /  19.1 °C 29.9in /  1013.3hPa NO 3mph /  4.8km/h 5.2mph /  8.4km/h 85% 0in /  0.0mm
03:14 71.1 °F /  21.7 °C 66.4 °F /  19.1 °C 29.9in /  1013.2hPa NNO 3.1mph /  5km/h 5.9mph /  9.5km/h 85% 0in /  0.0mm
03:19 70.9 °F /  21.6 °C 66.2 °F /  19 °C 29.9in /  1013.2hPa NNO 3mph /  4.8km/h 6mph /  9.7km/h 85% 0in /  0.0mm
03:24 70.9 °F /  21.6 °C 66 °F /  18.9 °C 29.9in /  1013.2hPa NO 2.9mph /  4.7km/h 5mph /  8km/h 85% 0in /  0.0mm
03:29 70.9 °F /  21.6 °C 66 °F /  18.9 °C 29.9in /  1013.2hPa North 2.6mph /  4.2km/h 5mph /  8km/h 85% 0in /  0.0mm
03:34 70.9 °F /  21.6 °C 66 °F /  18.9 °C 29.9in /  1013.2hPa North 2.4mph /  3.9km/h 5.8mph /  9.3km/h 85% 0in /  0.0mm
03:39 70.9 °F /  21.6 °C 66 °F /  18.9 °C 29.9in /  1013.2hPa NNE 3mph /  4.9km/h 6mph /  9.7km/h 85% 0in /  0.0mm
03:44 70.7 °F /  21.5 °C 66 °F /  18.9 °C 29.9in /  1013.0hPa North 3.6mph /  5.8km/h 6.2mph /  10km/h 85% 0in /  0.0mm
03:49 70.7 °F /  21.5 °C 66.2 °F /  19 °C 29.9in /  1013.0hPa North 3.6mph /  5.8km/h 6mph /  9.7km/h 85.5% 0in /  0.0mm
03:54 70.7 °F /  21.5 °C 66.4 °F /  19.1 °C 29.9in /  1013.0hPa NNE 3.6mph /  5.8km/h 6mph /  9.7km/h 86% 0in /  0.0mm
03:59 70.7 °F /  21.5 °C 66.2 °F /  19 °C 29.9in /  1012.9hPa NE 3.2mph /  5.1km/h 5.4mph /  8.7km/h 86% 0in /  0.0mm
04:04 70.7 °F /  21.5 °C 66.2 °F /  19 °C 29.9in /  1012.9hPa North 2.9mph /  4.6km/h 5mph /  8km/h 86% 0in /  0.0mm
04:09 70.7 °F /  21.5 °C 66.4 °F /  19.1 °C 29.9in /  1013.1hPa NNE 2.6mph /  4.2km/h 5mph /  8km/h 86% 0in /  0.0mm
04:14 70.7 °F /  21.5 °C 66.4 °F /  19.1 °C 29.9in /  1013.1hPa NNO 2.4mph /  3.9km/h 4.6mph /  7.4km/h 86% 0in /  0.0mm
04:19 70.7 °F /  21.5 °C 66.4 °F /  19.1 °C 29.9in /  1013.1hPa NNO 2.4mph /  3.8km/h 5.9mph /  9.5km/h 86% 0in /  0.0mm
04:24 70.7 °F /  21.5 °C 66.2 °F /  19 °C 29.9in /  1013.1hPa North 2.4mph /  3.9km/h 6mph /  9.7km/h 86% 0in /  0.0mm
04:29 70.5 °F /  21.4 °C 66 °F /  18.9 °C 29.9in /  1012.9hPa NO 2.9mph /  4.6km/h 6.2mph /  10km/h 86% 0in /  0.0mm
04:34 70.5 °F /  21.4 °C 66 °F /  18.9 °C 29.9in /  1012.7hPa NO 3.1mph /  5km/h 6mph /  9.7km/h 86% 0in /  0.0mm
04:39 70.5 °F /  21.4 °C 66.2 °F /  19 °C 29.9in /  1012.7hPa NO 3mph /  4.8km/h 6mph /  9.7km/h 86.1% 0in /  0.0mm
04:44 70.5 °F /  21.4 °C 66.4 °F /  19.1 °C 29.9in /  1012.6hPa NO 2.9mph /  4.6km/h 5mph /  8km/h 86.8% 0in /  0.0mm
04:49 70.5 °F /  21.4 °C 66.2 °F /  19 °C 29.9in /  1012.6hPa NO 2.9mph /  4.6km/h 5mph /  8km/h 86.2% 0in /  0.0mm
04:54 70.5 °F /  21.4 °C 66.6 °F /  19.2 °C 29.9in /  1012.6hPa ONO 2.9mph /  4.6km/h 5.2mph /  8.4km/h 87% 0in /  0.0mm
04:59 70.5 °F /  21.4 °C 66.6 °F /  19.2 °C 29.9in /  1012.6hPa NO 2.5mph /  4.1km/h 5.2mph /  8.4km/h 87% 0in /  0.0mm
05:04 70.5 °F /  21.4 °C 66.6 °F /  19.2 °C 29.9in /  1012.5hPa NO 2.4mph /  3.9km/h 5.8mph /  9.3km/h 87% 0in /  0.0mm
05:09 70.5 °F /  21.4 °C 66.6 °F /  19.2 °C 29.9in /  1012.5hPa NO 2.8mph /  4.5km/h 6mph /  9.7km/h 87% 0in /  0.0mm
05:14 70.5 °F /  21.4 °C 66.6 °F /  19.2 °C 29.9in /  1012.5hPa NO 3.1mph /  5km/h 5.2mph /  8.4km/h 87% 0in /  0.0mm
05:19 70.3 °F /  21.3 °C 66.4 °F /  19.1 °C 29.9in /  1012.5hPa NO 3mph /  4.8km/h 5.4mph /  8.7km/h 87% 0in /  0.0mm
05:24 70.3 °F /  21.3 °C 66.4 °F /  19.1 °C 29.9in /  1012.5hPa ONO 2.9mph /  4.6km/h 6mph /  9.7km/h 87% 0in /  0.0mm
05:29 70.3 °F /  21.3 °C 66.4 °F /  19.1 °C 29.9in /  1012.5hPa Oeste 3.3mph /  5.3km/h 6.2mph /  10km/h 87.1% 0in /  0.0mm
05:34 70.3 °F /  21.3 °C 66.6 °F /  19.2 °C 29.9in /  1012.4hPa Oeste 3.6mph /  5.8km/h 6.9mph /  11.1km/h 87.9% 0in /  0.0mm
05:39 70.3 °F /  21.3 °C 66.6 °F /  19.2 °C 29.9in /  1012.9hPa OSO 3.6mph /  5.8km/h 6.2mph /  10km/h 88% 0in /  0.0mm
05:44 70.3 °F /  21.3 °C 66.6 °F /  19.2 °C 29.9in /  1012.9hPa Oeste 3.6mph /  5.8km/h 6.2mph /  10km/h 88% 0in /  0.0mm
05:49 70.3 °F /  21.3 °C 66.6 °F /  19.2 °C 29.9in /  1012.9hPa Oeste 3.3mph /  5.3km/h 6mph /  9.7km/h 88% 0in /  0.0mm
05:54 70.3 °F /  21.3 °C 66.4 °F /  19.1 °C 29.9in /  1012.9hPa Oeste 3.1mph /  5km/h 6.9mph /  11.1km/h 87.2% 0in /  0.0mm
05:59 70.5 °F /  21.4 °C 66.6 °F /  19.2 °C 29.9in /  1012.6hPa Oeste 3mph /  4.8km/h 7mph /  11.3km/h 87% 0in /  0.0mm
06:04 70.5 °F /  21.4 °C 66.6 °F /  19.2 °C 29.9in /  1012.4hPa North 2.9mph /  4.6km/h 4.6mph /  7.4km/h 87% 0in /  0.0mm
06:09 70.5 °F /  21.4 °C 66.6 °F /  19.2 °C 29.9in /  1012.4hPa NNE 2.4mph /  3.8km/h 5mph /  8km/h 87% 0in /  0.0mm
06:14 70.5 °F /  21.4 °C 66.6 °F /  19.2 °C 29.9in /  1011.9hPa NNE 2mph /  3.2km/h 5.4mph /  8.7km/h 87% 0in /  0.0mm
06:19 70.5 °F /  21.4 °C 66.6 °F /  19.2 °C 29.9in /  1011.7hPa NE 2.5mph /  4km/h 6mph /  9.7km/h 87% 0in /  0.0mm
06:24 70.3 °F /  21.3 °C 66.4 °F /  19.1 °C 29.9in /  1011.7hPa NNE 2.9mph /  4.6km/h 6mph /  9.7km/h 87% 0in /  0.0mm
06:29 70.3 °F /  21.3 °C 66.4 °F /  19.1 °C 29.9in /  1010.9hPa North 3.3mph /  5.3km/h 6mph /  9.7km/h 87% 0in /  0.0mm
06:34 70.3 °F /  21.3 °C 66.4 °F /  19.1 °C 29.8in /  1010.7hPa ONO 3.6mph /  5.8km/h 5.9mph /  9.5km/h 87% 0in /  0.0mm
06:39 70.3 °F /  21.3 °C 66.4 °F /  19.1 °C 29.9in /  1011.4hPa OSO 3.3mph /  5.3km/h 10.7mph /  17.2km/h 87% 0in /  0.0mm
06:44 70.3 °F /  21.3 °C 66.4 °F /  19.1 °C 29.9in /  1011.4hPa OSO 3.1mph /  5km/h 11mph /  17.7km/h 87% 0in /  0.0mm
06:49 70.5 °F /  21.4 °C 66.6 °F /  19.2 °C 29.9in /  1011.4hPa SO 4.7mph /  7.6km/h 11.5mph /  18.5km/h 87% 0in /  0.0mm
06:54 70.7 °F /  21.5 °C 66.6 °F /  19.2 °C 29.9in /  1012.3hPa SO 6.2mph /  10km/h 12.7mph /  20.4km/h 86.7% 0in /  0.0mm
06:59 70.9 °F /  21.6 °C 66.6 °F /  19.2 °C 29.9in /  1012.3hPa SO 6.9mph /  11.1km/h 12.7mph /  20.4km/h 86% 0in /  0.0mm
07:04 70.7 °F /  21.5 °C 66.2 °F /  19 °C 29.9in /  1012.3hPa SO 7.4mph /  11.9km/h 12.7mph /  20.4km/h 86% 0in /  0.0mm
07:09 70.5 °F /  21.4 °C 66 °F /  18.9 °C 29.9in /  1012.3hPa SO 6.8mph /  11km/h 13mph /  20.9km/h 86% 0in /  0.0mm
07:14 70.5 °F /  21.4 °C 66.2 °F /  19 °C 29.9in /  1012.2hPa SO 6.4mph /  10.3km/h 9mph /  14.5km/h 86% 0in /  0.0mm
07:19 70.5 °F /  21.4 °C 66 °F /  18.9 °C 29.9in /  1012.2hPa OSO 5.5mph /  8.8km/h 8mph /  12.9km/h 86% 0in /  0.0mm
Murcia-Puente Tocinos, España
Compliments of Weather Underground - 1.75 mb

La estación de MeteoMurcia.com, publica sus datos en los siguientes proyectos:

Weather Underground PWS IMURCIAP2 Meteoclimatic www.awekas.at

W3Counter
Web Analytics